Weather History for Palacios, TX

Change the Weather History Date:

Tuesday, March 5, 2013

  Actual Average Record
Temperature  
Mean Temperature 62 °F -  
Max Temperature 72 °F 68 °F 82 °F (1974)
Min Temperature 48 °F 48 °F 29 °F (1989)
Degree Days  
Heating Degree Days 4    
Growing Degree Days 12 (Base 50)    
Moisture  
Dew Point 43 °F    
Average Humidity 54    
Maximum Humidity 88    
Minimum Humidity 17    
Precipitation  
Precipitation 0.00 in - - ()
Sea Level Pressure  
Sea Level Pressure 30.11 in    
Wind  
Wind Speed 16 mph (NNW)    
Max Wind Speed 30 mph    
Max Gust Speed 44 mph    
Visibility 10 miles    
Events      
Averages and records for this station are not official NWS values.
T = Trace of Precipitation, MM = Missing Value Source: NWS Daily Summary

Daily Weather History Graph

Daily Weather History Graph

Search for Another Location

Airport:

Trip Planner

Search our weather history database for the weather conditions in past years. The results will help you decide how hot, cold, wet, or windy it might be!

Date:

Astronomy

Mar. 05, 2013 Rise Set
Actual Time 6:45 AM CST 6:27 PM CST
Civil Twilight 6:21 AM CST 6:51 PM CST
Nautical Twilight 5:54 AM CST 7:18 PM CST
Astronomical Twilight 5:27 AM CST 7:46 PM CST
Moon 1:38 AM CST (3/5) 12:28 PM CST (3/5)
Length of Visible Light 12h 29m
Length of Day
11h 42m
Last Quarter, 40% of the Moon is Illuminated
Mar 5
Last Quarter
Mar 11
New
Mar 19
First Quarter
Mar 27
Full
Apr 2
Last Quarter

Hourly Weather History & Observations

Time (CST) Temp. Dew Point Humidity Pressure Visibility Wind Dir Wind Speed Gust Speed Precip Events Conditions
1:53 AM 66.9 °F 62.1 °F 84% 29.86 in 8.0 mi SSW 11.5 mph 18.4 mph N/A   Overcast
2:53 AM 68.0 °F 62.6 °F 83% 29.85 in 9.0 mi South 12.7 mph - N/A   Overcast
3:53 AM 66.0 °F 62.1 °F 87% 29.84 in 7.0 mi South 10.4 mph - N/A   Overcast
4:53 AM 64.9 °F 61.0 °F 87% 29.86 in 7.0 mi South 6.9 mph - N/A   Mostly Cloudy
5:44 AM 64.4 °F 60.8 °F 88% 29.97 in 7.0 mi NNW 28.8 mph 35.7 mph N/A   Squalls
5:53 AM 66.2 °F 62.6 °F 88% 29.97 in 9.0 mi NW 12.7 mph 43.7 mph N/A   Overcast
6:05 AM 66.2 °F 62.6 °F 88% 30.01 in 9.0 mi NNW 17.3 mph 27.6 mph N/A   Overcast
6:24 AM 66.2 °F 62.6 °F 88% 30.02 in 10.0 mi NW 9.2 mph - N/A   Overcast
6:42 AM 66.2 °F 62.6 °F 88% 30.03 in 10.0 mi NW 10.4 mph - N/A   Overcast
6:53 AM 66.2 °F 60.8 °F 83% 30.03 in 10.0 mi NNW 6.9 mph - N/A   Overcast
7:42 AM 60.8 °F 48.2 °F 63% 30.07 in 10.0 mi North 28.8 mph 35.7 mph N/A   Squalls
7:53 AM 59.0 °F 46.0 °F 62% 30.08 in 10.0 mi North 26.5 mph 33.4 mph N/A   Overcast
8:44 AM 59.0 °F 42.8 °F 55% 30.12 in 10.0 mi North 27.6 mph 39.1 mph N/A   Overcast
8:53 AM 59.0 °F 42.1 °F 53% 30.13 in 10.0 mi North 26.5 mph 39.1 mph N/A   Overcast
9:53 AM 61.0 °F 39.9 °F 46% 30.16 in 10.0 mi North 29.9 mph 40.3 mph N/A   Overcast
10:53 AM 66.0 °F 37.9 °F 36% 30.18 in 10.0 mi North 23.0 mph 35.7 mph N/A   Overcast
11:53 AM 68.0 °F 37.0 °F 32% 30.19 in 10.0 mi North 27.6 mph 34.5 mph N/A   Clear
12:53 PM 71.1 °F 35.1 °F 27% 30.18 in 10.0 mi North 25.3 mph 34.5 mph N/A   Clear
1:53 PM 71.1 °F 30.9 °F 23% 30.18 in 10.0 mi North 26.5 mph 34.5 mph N/A   Clear
2:53 PM 72.0 °F 30.0 °F 21% 30.18 in 10.0 mi NNW 23.0 mph 29.9 mph N/A   Clear
3:53 PM 72.0 °F 25.0 °F 17% 30.19 in 10.0 mi North 26.5 mph 33.4 mph N/A   Clear
5:53 PM 66.0 °F 25.0 °F 21% 30.22 in 10.0 mi North 20.7 mph - N/A   Clear
6:53 PM 61.0 °F 26.1 °F 26% 30.25 in 10.0 mi North 12.7 mph - N/A   Clear
7:53 PM 54.0 °F 28.9 °F 38% 30.27 in 10.0 mi NNW 9.2 mph - N/A   Clear
8:53 PM 55.0 °F 25.0 °F 31% 30.28 in 10.0 mi North 11.5 mph - N/A   Clear
9:53 PM 54.0 °F 25.0 °F 33% 30.30 in 10.0 mi North 11.5 mph - N/A   Clear
10:53 PM 51.1 °F 24.1 °F 35% 30.31 in 10.0 mi North 12.7 mph - N/A   Clear
11:53 PM 48.0 °F 25.0 °F 41% 30.32 in 10.0 mi North 8.1 mph - N/A   Clear